TimeHST,TemperatureF,Dew PointF,Humidity,Sea Level PressureIn,VisibilityMPH,Wind Direction,Wind SpeedMPH,Gust SpeedMPH,PrecipitationIn,Events,Conditions,WindDirDegrees,DateUTC
12:53 AM,77.0,63.0,62,29.98,10.0,SE,3.5,-,N/A,,Overcast,130,2012-09-03 10:53:00
1:53 AM,75.0,62.1,64,29.96,10.0,NNE,4.6,-,N/A,,Mostly Cloudy,30,2012-09-03 11:53:00
2:53 AM,75.0,61.0,62,29.96,10.0,NE,8.1,-,N/A,,Clear,50,2012-09-03 12:53:00
3:53 AM,73.9,62.1,66,29.96,10.0,ENE,4.6,-,N/A,,Clear,60,2012-09-03 13:53:00
4:53 AM,73.0,61.0,66,29.97,10.0,ENE,5.8,-,N/A,,Mostly Cloudy,70,2012-09-03 14:53:00
5:53 AM,73.0,60.1,64,29.99,10.0,NNE,3.5,-,N/A,,Scattered Clouds,30,2012-09-03 15:53:00
6:53 AM,73.9,60.1,62,30.00,10.0,Calm,Calm,-,N/A,,Clear,0,2012-09-03 16:53:00
7:53 AM,80.1,63.0,56,30.01,10.0,SSE,6.9,-,N/A,,Clear,160,2012-09-03 17:53:00
8:53 AM,81.0,64.9,58,30.03,10.0,South,9.2,-,N/A,,Clear,170,2012-09-03 18:53:00
9:53 AM,82.0,66.0,58,30.04,10.0,SSW,10.4,-,N/A,,Clear,210,2012-09-03 19:53:00
10:53 AM,82.9,66.9,58,30.03,10.0,SSW,12.7,-,N/A,,Clear,200,2012-09-03 20:53:00
11:53 AM,82.9,66.9,58,30.01,10.0,SSW,12.7,-,N/A,,Partly Cloudy,200,2012-09-03 21:53:00
12:53 PM,82.0,66.0,58,30.00,10.0,South,12.7,-,N/A,,Overcast,190,2012-09-03 22:53:00
1:53 PM,82.0,66.9,60,29.99,10.0,South,12.7,-,N/A,,Overcast,190,2012-09-03 23:53:00
2:53 PM,82.9,66.9,58,29.97,10.0,South,13.8,-,N/A,,Mostly Cloudy,180,2012-09-04 00:53:00
3:53 PM,82.0,66.0,58,29.96,10.0,South,8.1,-,N/A,,Overcast,190,2012-09-04 01:53:00
4:53 PM,80.1,66.0,62,29.95,10.0,SSW,8.1,-,N/A,,Mostly Cloudy,210,2012-09-04 02:53:00
5:53 PM,79.0,66.0,64,29.95,10.0,SW,10.4,-,N/A,,Mostly Cloudy,220,2012-09-04 03:53:00
6:53 PM,79.0,64.9,62,29.96,10.0,West,4.6,-,N/A,,Overcast,270,2012-09-04 04:53:00
7:53 PM,79.0,62.1,56,29.97,10.0,Calm,Calm,-,N/A,,Clear,0,2012-09-04 05:53:00
8:53 PM,78.1,64.9,64,29.99,10.0,East,3.5,-,N/A,,Overcast,90,2012-09-04 06:53:00
9:53 PM,78.1,64.9,64,30.00,10.0,Calm,Calm,-,N/A,,Mostly Cloudy,0,2012-09-04 07:53:00
10:53 PM,78.1,63.0,60,30.00,10.0,SE,8.1,-,N/A,,Clear,130,2012-09-04 08:53:00
11:53 PM,78.1,64.9,64,30.01,10.0,WSW,10.4,-,N/A,,Partly Cloudy,250,2012-09-04 09:53:00